User: anonymous   Login
Location: Hartman Creek State Park
(44.3257°N, 89.2134°W)
Time: 12:13:09
(UTC-06:00)
Language:

Terra - Orbit

View from above orbital plane
View from above orbital plane
View from above satellite
View from above satellite

Ground track
Ground track

The orbit data is extracted from the following two-line orbital elements,

1 25994U 99068A   17020.08460022 -.00000202  00000-0 -34766-4 0  9999
2 25994  98.1987  97.2211 0000883  90.4426 269.6854 14.57121315909108
Epoch (UTC): 20 January 2017 02:01:49
Eccentricity: 0.0000883
inclination: 98.1987°
perigee height: 702 km
apogee height: 703 km
right ascension of ascending node: 97.2211°
argument of perigee: 90.4426°
revolutions per day: 14.57121315
mean anomaly at epoch: 269.6854°
orbit number at epoch: 90910

The dashed part of the orbit path shows where the satellite is in the earth's shadow,  

DLR